Fort Eustis, VA

3:07 PM EDT on July 21, 2017 (GMT -0400)
Felker Army Air Field

Weather History for KFAF - December, 2011

Change the Weather History Date:

Saturday, December 17, 2011

  Actual Average Record
Temperature  
Mean Temperature 37 °F -  
Max Temperature 43 °F 50 °F 66 °F (2001)
Min Temperature 31 °F 35 °F 25 °F (2010)
Degree Days  
Heating Degree Days 28    
Moisture  
Dew Point 31 °F    
Average Humidity 71    
Maximum Humidity 93    
Minimum Humidity 53    
Precipitation  
Precipitation 0.06 in - - ()
Sea Level Pressure  
Sea Level Pressure 30.19 in    
Wind  
Wind Speed 5 mph (North)    
Max Wind Speed 12 mph    
Max Gust Speed -    
Visibility 8 miles    
Events      
Averages and records for this station are not official NWS values.
T = Trace of Precipitation, MM = Missing Value Source: NWS Daily Summary

Daily Weather History Graph

Daily Weather History Graph

Search for Another Location

Airport or City:

Trip Planner

Search our weather history database for the weather conditions in past years. The results will help you decide how hot, cold, wet, or windy it might be!

Date:

Astronomy

Dec. 17, 2011 Rise Set
Actual Time 7:13 AM EST 4:51 PM EST
Civil Twilight 6:44 AM EST 5:20 PM EST
Nautical Twilight 6:12 AM EST 5:52 PM EST
Astronomical Twilight 5:40 AM EST 6:24 PM EST
Moon No Moon Rise 11:36 AM EST (12/17)
Length of Visible Light 10h 35m
Length of Day
9h 37m
Waning Gibbous, 54% of the Moon is Illuminated
Dec 17
Waning Gibbous
Dec 17
Last Quarter
Dec 24
New
Jan 1
First Quarter
Jan 9
Full

Hourly Weather History & Observations

Time (EST) Temp. Windchill Dew Point Humidity Pressure Visibility Wind Dir Wind Speed Gust Speed Precip Events Conditions
12:05 AM 41.0 °F 39.0 °F 37.4 °F 87% 30.19 in 10.0 mi North 3.5 mph - N/A   Overcast
12:31 AM 41.0 °F - 37.4 °F 87% 30.19 in 10.0 mi Calm Calm - N/A   Overcast
12:50 AM 41.0 °F 38.0 °F 37.4 °F 87% 30.17 in 10.0 mi Variable 4.6 mph - N/A   Mostly Cloudy
12:55 AM 40.5 °F 38.4 °F 37.4 °F 89% 30.17 in 10.0 mi NNE 3.5 mph - 0.04 in   Mostly Cloudy
1:55 AM 40.3 °F 38.2 °F 37.8 °F 91% 30.14 in 10.0 mi ENE 3.5 mph - 0.01 in   Mostly Cloudy
1:56 AM 41.0 °F 39.0 °F 37.4 °F 87% 30.14 in 10.0 mi ENE 3.5 mph - N/A   Mostly Cloudy
2:07 AM 39.2 °F - 37.4 °F 93% 30.14 in 10.0 mi Calm Calm - N/A   Scattered Clouds
2:55 AM 40.8 °F 37.8 °F 36.1 °F 83% 30.17 in 10.0 mi Variable 4.6 mph - 0.01 in   Overcast
3:55 AM 41.0 °F 39.0 °F 36.5 °F 84% 30.15 in 10.0 mi North 3.5 mph - N/A   Overcast
4:55 AM 39.9 °F 36.7 °F 35.2 °F 83% 30.17 in 10.0 mi NNW 4.6 mph - N/A   Scattered Clouds
5:55 AM 40.3 °F 34.4 °F 33.6 °F 77% 30.19 in 10.0 mi NNW 9.2 mph - N/A   Scattered Clouds
6:55 AM 38.8 °F 33.8 °F 34.0 °F 83% 30.20 in 10.0 mi North 6.9 mph - N/A   Clear
7:55 AM 39.2 °F 34.2 °F 30.0 °F 70% 30.22 in 10.0 mi North 6.9 mph - N/A   Mostly Cloudy
8:55 AM 40.5 °F 35.8 °F 29.8 °F 66% 30.22 in 10.0 mi North 6.9 mph - N/A   Clear
9:55 AM 41.9 °F 35.9 °F 27.9 °F 58% 30.23 in 10.0 mi NNE 10.4 mph - N/A   Clear
10:55 AM 43.5 °F 40.1 °F 28.2 °F 55% 30.22 in 10.0 mi NNE 5.8 mph - N/A   Partly Cloudy
11:55 AM 43.5 °F 39.4 °F 28.2 °F 55% 30.20 in 10.0 mi Variable 6.9 mph - N/A   Overcast
12:55 PM 43.3 °F 37.7 °F 27.5 °F 54% 30.19 in 10.0 mi North 10.4 mph - N/A   Overcast
1:55 PM 43.0 °F 36.8 °F 27.5 °F 54% 30.17 in 10.0 mi NW 11.5 mph - N/A   Overcast
2:55 PM 43.0 °F 38.8 °F 27.0 °F 53% 30.15 in 4.0 mi Variable 6.9 mph - N/A   Haze
3:55 PM 42.4 °F 36.5 °F 27.0 °F 54% 30.17 in 3.0 mi NW 10.4 mph - N/A   Haze
4:55 PM 41.5 °F 35.9 °F 25.5 °F 53% 30.19 in 5.0 mi North 9.2 mph - N/A   Haze
5:55 PM 41.2 °F 38.2 °F 25.2 °F 53% 30.21 in 6.0 mi North 4.6 mph - N/A   Haze
6:55 PM 40.8 °F 37.8 °F 24.6 °F 53% 30.21 in 6.0 mi North 4.6 mph - N/A   Haze
7:55 PM 39.2 °F 37.0 °F 24.1 °F 55% 30.22 in 6.0 mi NNE 3.5 mph - N/A   Haze
8:55 PM 34.2 °F - 27.9 °F 78% 30.22 in 5.0 mi Calm Calm - N/A   Haze
9:55 PM 32.7 °F - 26.1 °F 76% 30.22 in 5.0 mi Calm Calm - N/A   Haze
10:55 PM 31.3 °F - 26.2 °F 82% 30.20 in 5.0 mi Calm Calm - N/A   Haze
11:55 PM 37.2 °F 31.2 °F 25.3 °F 62% 30.21 in 6.0 mi North 8.1 mph - N/A   Haze